Theta_e
329 319 317 317 317 316 318 325 331 338 343 344 344 343 340 337 334 333 332 329 324 317 314 314 313 313 311 310 309 309 309 309 311 316 331 340 342 342 341 343 347 347 341
324 319 317 317 317 316 316 319 326 334 340 343 343 342 339 336 333 331 327 321 315 313 312 311 312 313 315 314 313 312 312 310 309 307 313 325 333 341 342 341 343 346 341
323 319 317 317 317 316 316 317 321 329 336 341 341 340 338 336 333 327 322 315 313 311 311 312 314 315 316 315 315 314 313 313 312 311 308 317 336 339 340 341 340 343 340
322 319 318 318 317 316 315 315 318 325 333 337 339 339 337 333 331 325 318 314 312 311 312 313 315 318 321 322 321 321 321 317 312 315 326 333 333 333 333 340 340 341 339
322 319 319 318 317 316 315 315 316 321 325 330 333 333 331 329 328 323 316 313 311 313 315 316 318 321 325 327 327 328 329 328 318 330 340 332 334 325 323 331 341 339 339
323 321 320 319 318 316 315 315 315 316 319 322 325 326 326 326 325 319 315 312 312 314 318 318 322 326 328 329 330 331 331 330 330 339 339 335 330 328 326 324 336 343 339
325 323 320 320 319 317 316 315 315 315 315 316 320 321 321 323 321 317 313 312 312 315 318 318 325 327 328 331 334 334 332 329 325 329 335 333 333 328 328 325 327 338 342
326 324 321 320 319 318 317 316 315 315 314 314 315 317 319 318 317 315 313 312 312 316 318 319 326 325 327 330 334 334 329 326 324 330 333 336 335 333 331 317 322 333 337
332 327 322 319 319 318 317 316 316 315 314 314 314 314 314 315 314 313 313 313 313 315 318 321 326 325 327 328 330 329 326 325 325 325 331 334 335 334 333 324 313 330 336
340 336 331 320 319 318 317 316 316 315 314 314 314 314 314 313 313 313 313 313 314 315 317 321 326 327 327 327 328 327 326 325 324 331 331 335 335 334 332 325 318 329 333
344 341 339 330 319 319 318 317 316 315 314 314 314 314 314 314 314 314 314 313 314 315 317 321 324 328 329 330 329 328 327 327 326 334 336 337 335 334 332 330 324 331 339
349 345 342 338 331 321 320 319 317 316 315 314 314 314 315 315 315 316 317 315 314 315 316 321 326 329 331 331 330 330 330 334 332 336 336 337 335 333 332 329 325 331 338
344 343 342 342 337 330 324 321 320 317 317 316 315 314 316 317 319 320 321 324 321 318 322 321 326 330 332 332 331 335 338 339 336 336 336 337 334 331 328 323 326 329 334
342 345 346 343 342 337 329 331 332 333 329 323 318 317 318 319 323 322 327 332 330 329 324 325 323 325 330 330 331 334 339 339 339 337 335 335 331 330 328 322 322 327 333
339 342 349 348 345 343 341 339 339 338 338 338 338 336 329 327 327 328 327 333 333 333 331 328 327 327 329 328 330 335 337 339 341 337 334 333 332 332 330 327 322 327 332
337 341 347 345 344 343 344 342 341 341 340 341 342 343 342 339 336 333 332 331 334 335 335 333 332 330 332 333 334 336 338 339 340 336 335 334 334 332 332 330 327 327 335
336 338 337 338 337 338 345 346 344 343 343 343 344 345 345 343 341 338 337 335 335 336 337 335 334 333 334 336 335 337 338 339 338 337 337 336 335 333 332 331 329 328 333
335 336 337 340 338 337 346 343 343 344 346 346 346 346 346 345 344 341 340 338 336 337 337 337 336 336 334 336 338 338 340 339 339 336 337 336 335 334 333 332 331 330 328
334 334 334 340 348 348 346 346 342 339 334 344 347 347 346 347 347 344 341 341 339 338 339 339 338 338 337 336 340 339 337 338 339 338 338 336 335 335 334 333 333 331 330
334 335 334 337 346 347 347 346 341 340 339 340 342 346 347 347 348 347 343 343 342 341 339 339 338 338 337 339 337 337 336 337 338 336 335 335 336 335 335 334 333 332 331
336 337 338 336 337 342 347 346 348 349 348 348 346 343 344 345 346 348 346 344 344 343 343 340 340 338 337 336 335 335 337 338 338 334 334 335 335 334 334 333 332 333 332
335 336 335 334 335 337 338 335 333 332 335 335 334 336 339 343 346 349 348 347 346 345 343 342 340 340 337 337 334 336 333 334 336 335 336 337 336 334 332 332 333 333 332
334 334 334 333 332 333 333 332 330 333 338 339 341 341 341 344 348 349 348 346 345 346 343 343 341 341 337 336 336 335 334 330 328 336 337 335 334 335 334 332 332 332 331
336 333 331 330 330 330 330 329 329 337 342 338 337 340 345 347 348 348 347 347 345 346 344 343 342 341 337 336 335 338 336 334 330 329 334 334 335 335 334 333 332 331 331
333 336 334 333 333 331 330 330 331 339 341 341 339 347 347 347 348 347 347 346 344 347 343 342 342 339 336 338 338 337 335 334 333 328 328 330 334 333 333 332 330 328 329
327 326 327 332 333 331 332 332 332 335 342 342 344 350 348 348 348 347 347 345 344 346 343 344 342 339 339 339 337 335 333 332 330 329 327 327 328 332 332 332 329 329 329
Wind_Speed
34 35 33 30 26 24 22 19 18 17 15 15 13 13 12 11 11 11 10 10 8 6 6 5 4 4 4 3 3 3 3 3 2 3 5 6 6 5 5 7 6 6 9
43 37 34 31 28 25 23 22 18 17 15 15 14 12 11 10 10 9 8 8 6 6 5 6 6 5 5 5 5 5 4 4 4 3 3 5 4 3 3 4 5 7 9
43 39 36 33 30 27 24 23 21 18 17 15 14 12 11 9 9 8 7 6 6 6 6 6 5 5 5 4 4 4 5 5 4 3 3 3 4 3 3 4 4 7 9
43 41 37 34 31 29 26 23 22 20 18 17 14 13 11 10 9 8 7 7 7 7 7 6 6 5 5 3 3 4 6 5 4 5 3 3 8 5 4 4 5 6 9
40 40 37 34 31 29 27 25 22 21 19 17 15 14 13 12 11 9 9 9 9 8 8 7 7 6 5 4 2 2 3 4 4 3 7 6 16 8 5 5 5 6 10
39 38 34 32 30 29 27 25 23 22 20 18 16 16 15 14 13 12 11 10 9 9 9 8 8 8 6 4 3 2 1 0 2 1 1 6 6 6 3 4 6 7 9
39 36 34 31 29 28 27 25 23 22 21 19 19 18 17 16 15 14 13 12 12 10 10 9 10 8 7 6 5 3 3 3 3 3 4 8 10 7 5 4 9 8 9
40 36 35 31 29 28 26 24 23 22 21 20 20 19 18 18 17 16 15 15 14 13 12 11 12 9 8 8 7 6 5 5 5 6 2 5 11 9 5 3 7 10 11
36 35 34 33 30 27 26 25 23 22 21 21 21 21 20 20 19 19 18 17 17 16 15 14 14 12 11 10 9 9 6 6 6 6 4 6 13 10 7 5 6 10 12
32 32 33 35 32 31 29 26 24 23 22 22 22 22 23 22 21 21 20 20 19 19 18 17 16 15 14 13 12 10 8 8 5 5 6 8 12 10 7 6 5 9 13
31 31 30 34 35 33 31 28 26 24 23 23 24 24 24 25 24 24 24 23 23 22 22 21 19 18 17 15 14 13 11 11 7 9 7 11 15 10 6 6 8 12 12
31 31 29 29 33 34 30 29 28 27 27 28 28 27 28 28 26 26 26 25 26 26 24 23 21 21 19 19 17 16 15 12 9 11 13 15 14 9 6 7 11 14 14
41 37 35 30 29 33 32 29 27 29 28 28 30 29 31 30 29 28 28 26 27 28 26 25 24 24 24 21 20 18 17 16 13 14 16 22 14 9 5 7 12 14 16
37 41 40 35 32 30 29 29 27 27 28 31 33 32 33 32 33 32 31 29 28 28 30 28 27 28 26 23 21 21 20 20 20 13 10 15 12 8 6 6 12 15 16
22 28 29 29 30 27 27 28 28 30 28 28 26 27 32 34 35 33 33 30 31 31 31 29 29 29 28 25 24 25 24 21 20 18 8 10 12 11 8 7 10 15 16
15 27 29 27 26 28 30 29 31 28 29 27 28 26 29 32 33 33 33 33 34 32 32 30 28 31 29 25 24 24 27 23 23 14 15 16 15 14 9 9 10 13 15
14 9 19 19 36 30 35 32 27 28 28 27 29 25 30 34 35 33 33 32 31 33 30 31 28 28 30 28 29 25 21 22 17 17 15 16 16 17 14 10 10 11 14
22 16 19 14 30 37 41 38 36 32 29 31 27 24 31 35 36 36 34 33 31 28 29 29 29 33 29 29 30 29 25 18 23 19 16 17 18 18 17 15 13 12 13
32 33 31 31 38 42 43 35 26 22 26 34 30 30 34 34 38 38 38 33 31 32 29 28 26 30 31 29 24 21 15 14 18 15 20 20 22 20 19 17 16 14 13
22 28 33 34 33 33 28 23 17 19 21 25 28 31 33 31 33 37 36 32 29 28 32 29 28 23 17 21 18 19 15 17 18 20 23 21 19 19 18 18 17 19 15
23 28 30 27 23 26 23 19 20 24 25 29 32 33 31 30 32 35 33 31 30 27 26 29 23 22 20 14 11 10 11 12 16 21 19 19 19 14 15 16 18 19 16
28 30 34 33 31 29 28 25 22 21 25 29 32 36 32 30 32 33 35 30 26 27 22 23 23 17 18 15 9 3 1 7 16 20 16 17 17 17 17 20 14 18 17
29 35 35 32 31 31 29 27 26 25 26 24 23 23 30 30 29 29 29 29 28 22 23 21 21 20 16 15 12 7 2 4 1 4 15 13 12 13 11 13 15 18 17
30 37 36 35 34 33 30 28 28 25 21 31 23 22 29 27 28 28 27 23 22 21 26 21 21 19 16 14 12 16 12 3 2 2 1 4 9 9 9 11 13 14 15
18 19 25 26 28 29 32 35 33 30 30 25 22 23 27 26 25 25 22 21 22 20 25 22 21 20 19 14 13 10 13 9 7 3 2 3 5 5 7 11 9 11 12
29 29 29 31 34 36 37 37 34 33 28 19 21 28 28 26 23 22 21 19 22 18 20 19 23 19 15 18 15 14 9 5 5 3 2 2 2 2 7 8 9 9 13
Wind_Direction
160 151 151 148 148 146 145 145 145 147 148 146 145 138 133 128 126 126 125 121 118 116 115 113 113 106 101 97 92 84 73 57 58 91 89 77 67 63 81 103 109 131 107
157 152 152 150 151 151 149 148 150 152 154 155 153 149 146 143 139 138 131 125 125 119 116 112 114 108 99 88 82 75 65 58 52 74 134 118 89 86 67 103 114 149 132
154 153 155 153 154 155 157 154 155 158 163 164 161 160 161 158 153 149 151 148 144 138 135 127 129 125 116 105 96 86 71 64 72 81 96 146 117 107 84 95 106 125 137
155 157 157 155 158 159 162 160 160 165 169 170 170 171 173 173 175 171 174 173 166 164 156 151 152 141 131 120 106 88 85 78 86 102 44 339 164 151 111 104 122 129 149
159 159 158 158 161 164 166 165 166 170 175 177 179 183 186 189 191 194 193 188 183 181 169 169 170 163 154 155 143 93 80 81 100 87 37 127 167 150 123 123 137 148 159
163 163 160 161 165 169 170 171 174 177 180 183 189 194 197 201 201 202 203 204 198 192 186 189 190 178 177 183 193 191 167 156 163 132 337 230 207 185 174 166 172 170 178
167 168 165 166 170 173 174 176 180 186 188 191 197 202 205 209 211 210 208 213 209 204 203 205 204 197 197 207 220 237 254 258 256 241 319 212 204 190 190 211 183 185 188
168 171 171 173 175 178 179 182 187 193 197 201 205 211 215 217 220 218 217 217 215 215 214 217 214 212 214 223 231 245 256 270 263 232 256 214 192 185 191 182 185 187 194
172 171 176 178 180 184 186 188 194 199 204 210 213 218 221 225 225 226 222 221 221 221 221 223 222 223 222 230 238 248 260 271 279 250 260 235 191 189 184 178 199 193 204
173 174 178 183 185 188 191 195 198 204 209 216 219 223 227 228 229 230 227 226 225 227 227 225 226 233 230 235 240 246 252 257 261 260 229 216 195 187 176 175 193 187 193
171 177 180 185 189 193 195 197 201 207 213 220 224 227 231 232 230 231 229 229 229 229 230 229 228 233 237 240 244 246 251 257 257 232 246 238 198 195 197 200 201 187 194
169 180 183 187 192 195 197 202 205 209 213 219 225 226 231 234 233 235 236 235 234 234 234 232 231 234 236 240 246 250 251 267 248 236 247 217 199 203 211 217 201 192 189
181 182 188 189 192 195 199 205 210 216 220 225 229 230 233 234 234 233 236 235 236 235 233 233 232 235 236 238 244 248 252 261 253 248 259 213 205 205 229 219 201 198 195
182 183 188 188 182 189 192 201 205 210 216 225 230 232 233 233 235 231 233 233 234 233 234 234 234 237 238 240 243 244 255 259 261 257 203 204 210 217 231 219 209 204 203
122 165 170 181 184 186 189 204 207 214 220 226 232 231 231 233 233 234 231 230 234 232 234 236 238 239 239 239 242 245 245 258 255 229 218 203 211 222 222 222 217 210 209
175 150 158 173 189 192 193 207 213 217 223 227 229 232 231 231 234 233 232 226 230 232 232 233 237 237 238 237 237 244 245 246 240 236 234 240 233 219 228 224 219 217 213
189 163 188 214 213 209 202 200 208 218 221 228 231 236 239 233 231 232 230 226 225 230 231 231 232 237 233 236 237 238 242 246 237 235 235 233 234 215 225 233 235 225 218
182 168 151 192 206 213 216 214 213 215 215 220 224 231 245 242 235 230 229 226 225 225 226 225 225 232 233 231 231 234 237 255 242 244 243 256 239 223 222 235 235 235 228
190 202 203 185 198 209 213 213 213 222 223 226 230 235 236 240 236 231 225 226 223 225 225 223 224 231 231 227 221 225 236 247 229 239 254 258 246 246 233 241 237 230 228
219 191 189 178 174 188 199 208 223 229 232 233 237 240 240 240 235 230 224 218 220 227 225 227 236 232 226 212 223 229 240 249 249 261 266 248 252 234 246 240 232 226 225
223 205 178 175 174 173 177 193 221 230 238 239 242 247 243 242 231 224 216 214 218 223 224 222 229 232 225 215 214 227 234 244 256 265 262 253 253 244 232 244 245 235 223
215 202 187 189 188 189 192 203 221 236 248 255 259 258 248 235 230 218 210 206 214 223 223 219 223 219 216 212 198 146 342 290 251 251 252 250 260 261 259 254 243 225 218
217 201 189 192 198 204 209 218 232 245 247 248 249 260 235 225 217 210 208 209 218 222 219 219 222 220 196 201 212 177 148 224 327 249 244 249 258 262 266 247 239 216 222
216 203 197 199 204 207 211 220 230 229 227 243 252 251 213 209 204 204 204 208 210 220 218 216 220 214 197 211 228 219 226 177 173 321 247 237 243 244 244 226 231 213 208
195 201 208 211 209 211 217 221 225 229 237 245 248 215 199 194 194 198 200 204 205 218 215 217 216 208 211 203 191 197 222 224 206 140 245 286 237 244 215 208 200 197 194
198 201 208 204 209 218 220 222 225 227 224 226 230 196 185 186 189 195 200 204 204 211 220 218 214 210 207 205 200 210 193 177 194 167 175 220 206 205 177 202 202 212 212